| time (UTC) | temp F | wind direction | speed knots | gust knots | rain 1hr in | rain 24hr in | rain mn in | humidity % | barometer mb |
| 20260506135557 | 77 | 119 | 6.1 | 8.7 | 0.00 | 0.00 | 0.00 | 93 | 1009.3 |
| 20260506135055 | 77 | 110 | 5.2 | 7.8 | 0.00 | 0.00 | 0.00 | 93 | 1009.3 |
| 20260506134555 | 77 | 111 | 6.1 | 7.8 | 0.00 | 0.00 | 0.00 | 93 | 1009.3 |
| 20260506134055 | 77 | 105 | 5.2 | 7.8 | 0.00 | 0.00 | 0.00 | 93 | 1009.2 |
| 20260506133556 | 77 | 104 | 5.2 | 8.7 | 0.00 | 0.00 | 0.00 | 93 | 1009.3 |
| 20260506133054 | 77 | 100 | 4.3 | 8.7 | 0.00 | 0.00 | 0.00 | 94 | 1009.2 |
| 20260506132553 | 77 | 121 | 5.2 | 7.8 | 0.00 | 0.00 | 0.00 | 94 | 1009.2 |
| 20260506132054 | 77 | 114 | 5.2 | 7.0 | 0.00 | 0.00 | 0.00 | 94 | 1009.2 |
| 20260506131555 | 77 | 101 | 3.5 | 7.0 | 0.00 | 0.00 | 0.00 | 94 | 1009.2 |
| 20260506131053 | 77 | 118 | 4.3 | 7.0 | 0.00 | 0.00 | 0.00 | 94 | 1009.2 |
| 20260506130553 | 77 | 107 | 5.2 | 7.8 | 0.00 | 0.00 | 0.00 | 94 | 1009.1 |
| 20260506130113 | 77 | 115 | 6.1 | 7.8 | 0.00 | 0.00 | 0.00 | 94 | 1009.1 |
| 20260506125555 | 76 | 100 | 5.2 | 7.8 | 0.00 | 0.00 | 0.00 | 94 | 1009.1 |
| 20260506125152 | 76 | 96 | 5.2 | 7.8 | 0.00 | 0.00 | 0.00 | 94 | 1009.2 |
| 20260506124552 | 76 | 109 | 4.3 | 7.0 | 0.00 | 0.00 | 0.00 | 94 | 1009.2 |
| 20260506124053 | 76 | 89 | 4.3 | 7.0 | 0.00 | 0.00 | 0.00 | 94 | 1009.1 |
| 20260506123554 | 76 | 112 | 3.5 | 7.0 | 0.00 | 0.00 | 0.00 | 94 | 1009.1 |
| 20260506123051 | 76 | 131 | 4.3 | 7.0 | 0.00 | 0.00 | 0.00 | 94 | 1009.0 |
| 20260506122551 | 76 | 109 | 4.3 | 7.0 | 0.00 | 0.00 | 0.00 | 94 | 1009.1 |
| 20260506122050 | 76 | 107 | 3.5 | 6.1 | 0.00 | 0.00 | 0.00 | 94 | 1009.1 |
| 20260506121550 | 76 | 113 | 2.6 | 5.2 | 0.00 | 0.00 | 0.00 | 94 | 1009.0 |
| 20260506121049 | 76 | 120 | 2.6 | 5.2 | 0.00 | 0.00 | 0.00 | 94 | 1009.1 |
| 20260506120549 | 76 | 123 | 2.6 | 5.2 | 0.00 | 0.00 | 0.00 | 94 | 1009.1 |
| 20260506120049 | 76 | 119 | 2.6 | 4.3 | 0.00 | 0.00 | 0.00 | 94 | 1009.0 |
| 20260506115549 | 76 | 123 | 2.6 | 5.2 | 0.00 | 0.00 | 0.00 | 94 | 1008.9 |
| 20260506115049 | 76 | 129 | 2.6 | 6.1 | 0.00 | 0.00 | 0.00 | 94 | 1008.8 |
| 20260506114549 | 76 | 114 | 2.6 | 4.3 | 0.00 | 0.00 | 0.00 | 94 | 1008.7 |
| 20260506114047 | 76 | 125 | 1.7 | 5.2 | 0.00 | 0.00 | 0.00 | 94 | 1008.8 |
| 20260506113549 | 76 | 125 | 2.6 | 6.1 | 0.00 | 0.00 | 0.00 | 94 | 1008.7 |
| 20260506113047 | 76 | 132 | 3.5 | 6.1 | 0.00 | 0.00 | 0.00 | 94 | 1008.6 |
| 20260506112546 | 76 | 133 | 4.3 | 6.1 | 0.00 | 0.00 | 0.00 | 94 | 1008.7 |
| 20260506112045 | 76 | 134 | 3.5 | 7.0 | 0.00 | 0.00 | 0.00 | 94 | 1008.7 |
| 20260506111545 | 76 | 135 | 3.5 | 7.0 | 0.00 | 0.00 | 0.00 | 94 | 1008.6 |
| 20260506111045 | 76 | 119 | 4.3 | 7.0 | 0.00 | 0.00 | 0.00 | 94 | 1008.5 |
| 20260506110545 | 76 | 124 | 4.3 | 7.0 | 0.00 | 0.00 | 0.00 | 94 | 1008.5 |
| 20260506110051 | 76 | 121 | 4.3 | 7.0 | 0.00 | 0.00 | 0.00 | 94 | 1008.5 |
| 20260506105545 | 76 | 93 | 3.5 | 5.2 | 0.00 | 0.00 | 0.00 | 94 | 1008.6 |
| 20260506105046 | 76 | 115 | 3.5 | 5.2 | 0.00 | 0.00 | 0.00 | 94 | 1008.7 |
| 20260506104543 | 76 | 140 | 2.6 | 7.8 | 0.00 | 0.00 | 0.00 | 93 | 1008.8 |
| 20260506104043 | 76 | 151 | 4.3 | 7.8 | 0.00 | 0.00 | 0.00 | 93 | 1008.8 |
| 20260506103543 | 76 | 157 | 6.1 | 7.8 | 0.00 | 0.00 | 0.00 | 93 | 1008.8 |
| 20260506103047 | 76 | 140 | 5.2 | 7.8 | 0.00 | 0.00 | 0.00 | 93 | 1008.8 |
| 20260506102543 | 76 | 136 | 3.5 | 6.1 | 0.00 | 0.00 | 0.00 | 93 | 1008.8 |
| 20260506102042 | 76 | 140 | 3.5 | 7.0 | 0.00 | 0.00 | 0.00 | 93 | 1008.8 |
| 20260506101553 | 76 | 133 | 4.3 | 7.8 | 0.00 | 0.00 | 0.00 | 93 | 1008.7 |
| 20260506101042 | 76 | 138 | 3.5 | 6.1 | 0.00 | 0.00 | 0.00 | 93 | 1008.8 |
| 20260506100542 | 76 | 141 | 2.6 | 6.1 | 0.00 | 0.00 | 0.00 | 93 | 1008.8 |
| 20260506100043 | 76 | 162 | 2.6 | 6.1 | 0.00 | 0.00 | 0.00 | 93 | 1008.6 |
| 20260506095545 | 76 | 132 | 2.6 | 4.3 | 0.00 | 0.00 | 0.00 | 93 | 1008.6 |
| 20260506095041 | 76 | 140 | 2.6 | 4.3 | 0.00 | 0.00 | 0.00 | 93 | 1008.6 |
| 20260506094547 | 76 | 142 | 2.6 | 6.1 | 0.00 | 0.00 | 0.00 | 92 | 1008.5 |
| 20260506094039 | 76 | 139 | 3.5 | 7.0 | 0.00 | 0.00 | 0.00 | 92 | 1008.5 |
| 20260506093542 | 76 | 142 | 5.2 | 7.8 | 0.00 | 0.00 | 0.00 | 92 | 1008.5 |
| 20260506093039 | 76 | 144 | 4.3 | 7.8 | 0.00 | 0.00 | 0.00 | 92 | 1008.4 |
| 20260506092542 | 76 | 153 | 4.3 | 7.0 | 0.00 | 0.00 | 0.00 | 93 | 1008.5 |
| 20260506092039 | 76 | 161 | 4.3 | 7.0 | 0.00 | 0.00 | 0.00 | 93 | 1008.5 |
| 20260506091539 | 76 | 146 | 4.3 | 7.8 | 0.00 | 0.00 | 0.00 | 93 | 1008.4 |
| 20260506091043 | 76 | 140 | 6.1 | 7.8 | 0.00 | 0.00 | 0.00 | 93 | 1008.4 |
| 20260506090539 | 76 | 133 | 5.2 | 7.0 | 0.00 | 0.00 | 0.00 | 93 | 1008.3 |
| 20260506090038 | 76 | 136 | 4.3 | 7.0 | 0.00 | 0.00 | 0.00 | 93 | 1008.3 |
| 20260506085536 | 76 | 144 | 4.3 | 6.1 | 0.00 | 0.00 | 0.00 | 93 | 1008.3 |
| 20260506085036 | 76 | 143 | 3.5 | 6.1 | 0.00 | 0.00 | 0.00 | 93 | 1008.4 |
| 20260506084537 | 76 | 142 | 2.6 | 6.1 | 0.00 | 0.00 | 0.00 | 93 | 1008.5 |
| 20260506084036 | 76 | 121 | 2.6 | 7.0 | 0.00 | 0.00 | 0.00 | 92 | 1008.3 |
| 20260506083539 | 76 | 131 | 4.3 | 7.0 | 0.00 | 0.00 | 0.00 | 92 | 1008.4 |
| 20260506083036 | 76 | 136 | 2.6 | 7.0 | 0.00 | 0.00 | 0.00 | 92 | 1008.4 |
| 20260506082537 | 76 | 136 | 4.3 | 7.0 | 0.00 | 0.00 | 0.00 | 92 | 1008.5 |
| 20260506082034 | 76 | 137 | 5.2 | 7.0 | 0.00 | 0.00 | 0.00 | 92 | 1008.5 |
| 20260506081534 | 77 | 132 | 4.3 | 9.6 | 0.00 | 0.00 | 0.00 | 92 | 1008.5 |
| 20260506081034 | 77 | 124 | 4.3 | 9.6 | 0.00 | 0.00 | 0.00 | 92 | 1008.4 |
| 20260506080533 | 77 | 130 | 7.0 | 8.7 | 0.00 | 0.00 | 0.00 | 92 | 1008.4 |
| 20260506073030 | 77 | 140 | 5.2 | 8.7 | 0.00 | 0.00 | 0.00 | 92 | 1008.9 |
| 20260506072529 | 77 | 131 | 5.2 | 7.8 | 0.00 | 0.00 | 0.00 | 91 | 1008.9 |
| 20260506072029 | 77 | 132 | 5.2 | 8.7 | 0.00 | 0.00 | 0.00 | 91 | 1009.0 |
| 20260506071528 | 77 | 139 | 7.0 | 8.7 | 0.00 | 0.00 | 0.00 | 91 | 1009.0 |
| 20260506071027 | 77 | 141 | 5.2 | 8.7 | 0.00 | 0.00 | 0.00 | 91 | 1009.2 |
| 20260506070526 | 77 | 157 | 4.3 | 9.6 | 0.00 | 0.00 | 0.00 | 91 | 1009.3 |
| 20260506062025 | 77 | 154 | 5.2 | 8.7 | 0.00 | 0.00 | 0.00 | 91 | 1009.6 |
| 20260506061524 | 77 | 175 | 7.0 | 10.4 | 0.00 | 0.00 | 0.00 | 91 | 1009.5 |
| 20260506061024 | 77 | 158 | 7.0 | 11.3 | 0.00 | 0.00 | 0.00 | 91 | 1009.5 |
| 20260506060526 | 77 | 360 | 7.8 | 11.3 | 0.00 | 0.00 | 0.00 | 91 | 1009.5 |
| 20260506051021 | 77 | 169 | 9.6 | 13.0 | 0.00 | 0.00 | 0.00 | 91 | 1009.3 |
| 20260506050525 | 77 | 162 | 7.8 | 13.9 | 0.00 | 0.00 | 0.00 | 91 | 1009.3 |
| 20260506045016 | 77 | 164 | 8.7 | 13.9 | 0.00 | 0.00 | 0.00 | 91 | 1009.3 |
| 20260506044523 | 77 | 146 | 8.7 | 13.0 | 0.00 | 0.00 | 0.00 | 90 | 1009.2 |
| 20260506044026 | 77 | 157 | 7.8 | 13.0 | 0.00 | 0.00 | 0.00 | 90 | 1009.2 |
| 20260506043516 | 77 | 155 | 9.6 | 14.8 | 0.00 | 0.00 | 0.00 | 90 | 1009.2 |
| 20260506043017 | 77 | 152 | 9.6 | 14.8 | 0.00 | 0.00 | 0.00 | 90 | 1009.2 |
| 20260506042516 | 77 | 150 | 9.6 | 17.4 | 0.00 | 0.00 | 0.00 | 90 | 1009.2 |
| 20260506042022 | 77 | 156 | 9.6 | 16.5 | 0.00 | 0.00 | 0.00 | 90 | 1009.3 |
| 20260506041525 | 77 | 158 | 10.4 | 16.5 | 0.00 | 0.00 | 0.00 | 90 | 1009.2 |
| 20260506041017 | 77 | 149 | 7.8 | 13.0 | 0.00 | 0.00 | 0.00 | 90 | 1009.3 |
| 20260506040520 | 77 | 360 | 8.7 | 13.0 | 0.00 | 0.00 | 0.00 | 90 | 1009.2 |
| 20260506040015 | 77 | 148 | 8.7 | 13.9 | 0.00 | 0.00 | 0.00 | 90 | 1009.2 |
| 20260506035514 | 77 | 149 | 10.4 | 14.8 | 0.00 | 0.00 | 0.00 | 90 | 1009.1 |
| 20260506035015 | 77 | 145 | 9.6 | 13.9 | 0.00 | 0.00 | 0.00 | 90 | 1009.2 |
| 20260506034514 | 77 | 141 | 9.6 | 13.9 | 0.00 | 0.00 | 0.00 | 90 | 1009.1 |
| 20260506034013 | 77 | 145 | 7.8 | 12.2 | 0.00 | 0.00 | 0.00 | 90 | 1009.2 |
| 20260506033513 | 77 | 155 | 7.8 | 13.0 | 0.00 | 0.00 | 0.00 | 90 | 1009.2 |
| 20260506033014 | 77 | 131 | 9.6 | 13.0 | 0.00 | 0.00 | 0.00 | 90 | 1009.2 |
| 20260506032518 | 77 | 139 | 9.6 | 14.8 | 0.00 | 0.00 | 0.00 | 90 | 1009.1 |
| 20260506032014 | 77 | 148 | 10.4 | 14.8 | 0.00 | 0.00 | 0.00 | 90 | 1008.9 |
| 20260506031519 | 77 | 136 | 9.6 | 14.8 | 0.00 | 0.00 | 0.00 | 90 | 1009.0 |
| 20260506031014 | 77 | 144 | 10.4 | 17.4 | 0.00 | 0.00 | 0.00 | 90 | 1008.9 |
| 20260506030513 | 78 | 153 | 12.2 | 17.4 | 0.00 | 0.00 | 0.00 | 90 | 1008.9 |
| 20260506030012 | 78 | 159 | 12.2 | 15.6 | 0.00 | 0.00 | 0.00 | 90 | 1008.7 |
| 20260506025513 | 78 | 147 | 11.3 | 15.6 | 0.00 | 0.00 | 0.00 | 90 | 1008.7 |
| 20260506025013 | 78 | 152 | 11.3 | 15.6 | 0.00 | 0.00 | 0.00 | 89 | 1008.5 |
| 20260506024511 | 78 | 153 | 10.4 | 16.5 | 0.00 | 0.00 | 0.00 | 89 | 1008.4 |
| 20260506024011 | 78 | 148 | 12.2 | 16.5 | 0.00 | 0.00 | 0.00 | 89 | 1008.4 |
| 20260506023511 | 78 | 140 | 12.2 | 16.5 | 0.00 | 0.00 | 0.00 | 89 | 1008.2 |
| 20260506023011 | 78 | 146 | 11.3 | 14.8 | 0.00 | 0.00 | 0.00 | 89 | 1008.2 |
| 20260506022510 | 78 | 130 | 10.4 | 14.8 | 0.00 | 0.00 | 0.00 | 89 | 1008.2 |
| 20260506022010 | 78 | 144 | 10.4 | 15.6 | 0.00 | 0.00 | 0.00 | 89 | 1008.2 |
| 20260506021510 | 78 | 142 | 9.6 | 20.0 | 0.00 | 0.00 | 0.00 | 89 | 1008.1 |
| 20260506021012 | 78 | 141 | 13.0 | 20.0 | 0.00 | 0.00 | 0.00 | 89 | 1008.0 |
| 20260506020513 | 78 | 150 | 9.6 | 14.8 | 0.00 | 0.00 | 0.00 | 89 | 1007.9 |
| 20260506020014 | 78 | 159 | 10.4 | 14.8 | 0.00 | 0.00 | 0.00 | 89 | 1008.0 |
| 20260506015509 | 78 | 152 | 10.4 | 16.5 | 0.00 | 0.00 | 0.00 | 89 | 1007.9 |
| 20260506015009 | 78 | 141 | 10.4 | 16.5 | 0.00 | 0.00 | 0.00 | 89 | 1007.9 |
| 20260506014516 | 78 | 153 | 9.6 | 14.8 | 0.00 | 0.00 | 0.00 | 89 | 1007.9 |
| 20260506014008 | 78 | 138 | 9.6 | 14.8 | 0.00 | 0.00 | 0.00 | 89 | 1007.7 |
| 20260506013508 | 78 | 134 | 9.6 | 16.5 | 0.00 | 0.00 | 0.00 | 89 | 1007.8 |
| 20260506013022 | 78 | 142 | 9.6 | 13.9 | 0.00 | 0.00 | 0.00 | 88 | 1007.8 |
| 20260506012509 | 78 | 138 | 10.4 | 14.8 | 0.00 | 0.00 | 0.00 | 88 | 1007.6 |
| 20260506012009 | 78 | 139 | 10.4 | 14.8 | 0.00 | 0.00 | 0.00 | 88 | 1007.7 |
| 20260506011508 | 78 | 126 | 9.6 | 16.5 | 0.00 | 0.00 | 0.00 | 88 | 1007.5 |
| 20260506011007 | 78 | 144 | 11.3 | 16.5 | 0.00 | 0.00 | 0.00 | 88 | 1007.6 |
| 20260506010508 | 78 | 139 | 12.2 | 15.6 | 0.00 | 0.00 | 0.00 | 88 | 1007.4 |
| 20260506010008 | 78 | 134 | 10.4 | 15.6 | 0.00 | 0.00 | 0.00 | 88 | 1007.2 |
| 20260506005507 | 78 | 145 | 11.3 | 15.6 | 0.00 | 0.00 | 0.00 | 87 | 1007.2 |
| 20260506005012 | 78 | 161 | 12.2 | 16.5 | 0.00 | 0.00 | 0.00 | 87 | 1007.2 |
| 20260506004516 | 78 | 157 | 11.3 | 18.2 | 0.00 | 0.00 | 0.00 | 87 | 1007.2 |
| 20260506004006 | 78 | 160 | 13.0 | 20.0 | 0.00 | 0.00 | 0.00 | 87 | 1007.1 |
| 20260506003507 | 78 | 152 | 12.2 | 20.0 | 0.00 | 0.00 | 0.00 | 87 | 1007.1 |
| 20260506003006 | 79 | 152 | 10.4 | 15.6 | 0.00 | 0.00 | 0.00 | 86 | 1007.1 |
| 20260506002505 | 79 | 138 | 10.4 | 16.5 | 0.00 | 0.00 | 0.00 | 86 | 1007.0 |
| 20260506002007 | 79 | 148 | 12.2 | 16.5 | 0.00 | 0.00 | 0.00 | 85 | 1006.9 |
| 20260506001506 | 79 | 146 | 11.3 | 16.5 | 0.00 | 0.00 | 0.00 | 85 | 1007.0 |
| 20260506001006 | 79 | 155 | 13.0 | 17.4 | 0.00 | 0.00 | 0.00 | 85 | 1007.0 |
| 20260506000507 | 79 | 157 | 12.2 | 17.4 | 0.00 | 0.00 | 0.00 | 85 | 1007.0 |
| 20260506000015 | 79 | 146 | 12.2 | 17.4 | 0.00 | 0.00 | 0.00 | 85 | 1007.0 |
| 20260505235508 | 79 | 155 | 13.9 | 18.2 | 0.00 | 0.00 | 0.00 | 84 | 1007.0 |
| 20260505235004 | 80 | 157 | 13.0 | 18.2 | 0.00 | 0.00 | 0.00 | 84 | 1007.1 |
| 20260505234512 | 80 | 148 | 13.9 | 18.2 | 0.00 | 0.00 | 0.00 | 83 | 1007.1 |
| 20260505234003 | 80 | 163 | 11.3 | 20.0 | 0.00 | 0.00 | 0.00 | 83 | 1007.0 |
| 20260505233506 | 80 | 150 | 15.6 | 20.0 | 0.00 | 0.00 | 0.00 | 83 | 1007.0 |
| 20260505233003 | 80 | 205 | 14.8 | 20.0 | 0.00 | 0.00 | 0.00 | 83 | 1007.1 |
| 20260505232502 | 80 | 149 | 14.8 | 21.7 | 0.00 | 0.00 | 0.00 | 83 | 1007.1 |
| 20260505232002 | 80 | 168 | 16.5 | 21.7 | 0.00 | 0.00 | 0.00 | 82 | 1007.2 |
| 20260505231502 | 80 | 149 | 13.0 | 17.4 | 0.00 | 0.00 | 0.00 | 82 | 1007.2 |
| 20260505231001 | 80 | 168 | 12.2 | 16.5 | 0.00 | 0.00 | 0.00 | 82 | 1007.3 |
| 20260505230501 | 81 | 171 | 12.2 | 19.1 | 0.00 | 0.00 | 0.00 | 82 | 1007.3 |
| 20260505230118 | 81 | 167 | 11.3 | 19.1 | 0.00 | 0.00 | 0.00 | 82 | 1007.3 |
| 20260505225600 | 81 | 158 | 13.0 | 19.1 | 0.00 | 0.00 | 0.00 | 82 | 1007.4 |
| 20260505225100 | 81 | 148 | 13.0 | 19.1 | 0.00 | 0.00 | 0.00 | 82 | 1007.4 |
| 20260505224600 | 81 | 135 | 12.2 | 19.1 | 0.00 | 0.00 | 0.00 | 82 | 1007.4 |
| 20260505224059 | 81 | 163 | 13.9 | 17.4 | 0.00 | 0.00 | 0.00 | 82 | 1007.5 |
| 20260505223559 | 81 | 155 | 13.9 | 19.1 | 0.00 | 0.00 | 0.00 | 81 | 1007.4 |
| 20260505223101 | 81 | 155 | 13.9 | 19.1 | 0.00 | 0.00 | 0.00 | 81 | 1007.3 |
| 20260505222558 | 81 | 164 | 13.9 | 18.2 | 0.00 | 0.00 | 0.00 | 81 | 1007.3 |
| 20260505222058 | 81 | 150 | 13.9 | 18.2 | 0.00 | 0.00 | 0.00 | 80 | 1007.5 |
| 20260505221600 | 81 | 156 | 11.3 | 18.2 | 0.00 | 0.00 | 0.00 | 80 | 1007.4 |
| 20260505221059 | 81 | 148 | 10.4 | 20.9 | 0.00 | 0.00 | 0.00 | 81 | 1007.5 |
| 20260505220557 | 81 | 150 | 12.2 | 20.9 | 0.00 | 0.00 | 0.00 | 80 | 1007.5 |
| 20260505220057 | 81 | 163 | 12.2 | 18.2 | 0.00 | 0.00 | 0.00 | 80 | 1007.5 |
| 20260505215557 | 81 | 167 | 13.9 | 20.0 | 0.00 | 0.00 | 0.00 | 80 | 1007.5 |
| 20260505215057 | 81 | 158 | 10.4 | 19.1 | 0.00 | 0.00 | 0.00 | 80 | 1007.4 |
| 20260505214606 | 82 | 171 | 12.2 | 20.0 | 0.00 | 0.00 | 0.00 | 79 | 1007.5 |
| 20260505214055 | 82 | 153 | 12.2 | 18.2 | 0.00 | 0.00 | 0.00 | 78 | 1007.5 |
| 20260505213554 | 82 | 178 | 10.4 | 19.1 | 0.00 | 0.00 | 0.00 | 78 | 1007.6 |
| 20260505213059 | 82 | 163 | 13.0 | 19.1 | 0.00 | 0.00 | 0.00 | 78 | 1007.7 |
| 20260505212553 | 82 | 178 | 11.3 | 17.4 | 0.00 | 0.00 | 0.00 | 78 | 1007.8 |
| 20260505212053 | 82 | 167 | 12.2 | 19.1 | 0.00 | 0.00 | 0.00 | 77 | 1007.9 |
| 20260505211602 | 82 | 161 | 12.2 | 17.4 | 0.00 | 0.00 | 0.00 | 76 | 1007.9 |
| 20260505211052 | 82 | 155 | 13.0 | 19.1 | 0.00 | 0.00 | 0.00 | 77 | 1007.9 |
| 20260505210551 | 82 | 169 | 13.0 | 20.0 | 0.00 | 0.00 | 0.00 | 76 | 1008.0 |
| 20260505210056 | 82 | 176 | 13.0 | 20.0 | 0.00 | 0.00 | 0.00 | 77 | 1008.1 |
| 20260505205551 | 82 | 176 | 13.0 | 20.0 | 0.00 | 0.00 | 0.00 | 76 | 1008.1 |
| 20260505205049 | 82 | 163 | 11.3 | 21.7 | 0.00 | 0.00 | 0.00 | 77 | 1008.2 |
| 20260505204549 | 83 | 150 | 13.0 | 20.0 | 0.00 | 0.00 | 0.00 | 76 | 1008.3 |
| 20260505204048 | 83 | 178 | 13.0 | 20.0 | 0.00 | 0.00 | 0.00 | 76 | 1008.3 |
| 20260505203548 | 82 | 173 | 12.2 | 20.0 | 0.00 | 0.00 | 0.00 | 76 | 1008.5 |
| 20260505203050 | 82 | 173 | 13.9 | 19.1 | 0.00 | 0.00 | 0.00 | 75 | 1008.4 |
| 20260505202547 | 83 | 175 | 13.9 | 21.7 | 0.00 | 0.00 | 0.00 | 75 | 1008.6 |
| 20260505202054 | 83 | 169 | 15.6 | 20.9 | 0.00 | 0.00 | 0.00 | 75 | 1008.7 |
| 20260505201552 | 83 | 155 | 13.9 | 22.6 | 0.00 | 0.00 | 0.00 | 76 | 1008.7 |
| 20260505201045 | 83 | 159 | 13.0 | 20.9 | 0.00 | 0.00 | 0.00 | 76 | 1008.6 |
| 20260505200545 | 83 | 156 | 15.6 | 20.9 | 0.00 | 0.00 | 0.00 | 76 | 1008.8 |
| 20260505200045 | 83 | 153 | 13.9 | 20.9 | 0.00 | 0.00 | 0.00 | 76 | 1008.7 |
| 20260505195544 | 82 | 192 | 12.2 | 21.7 | 0.00 | 0.00 | 0.00 | 78 | 1008.9 |
| 20260505195044 | 83 | 173 | 13.9 | 18.2 | 0.00 | 0.00 | 0.00 | 76 | 1008.9 |
| 20260505194542 | 82 | 185 | 14.8 | 20.9 | 0.00 | 0.00 | 0.00 | 78 | 1009.1 |
| 20260505194040 | 82 | 180 | 13.0 | 22.6 | 0.00 | 0.00 | 0.00 | 79 | 1009.1 |
| 20260505193543 | 82 | 158 | 13.9 | 22.6 | 0.00 | 0.00 | 0.00 | 79 | 1009.2 |
| 20260505193046 | 82 | 175 | 13.0 | 19.1 | 0.00 | 0.00 | 0.00 | 79 | 1009.2 |
| 20260505192542 | 82 | 200 | 13.0 | 19.1 | 0.00 | 0.00 | 0.00 | 79 | 1009.2 |
| 20260505192041 | 82 | 178 | 13.9 | 19.1 | 0.00 | 0.00 | 0.00 | 79 | 1009.3 |
| 20260505191549 | 81 | 175 | 13.9 | 19.1 | 0.00 | 0.00 | 0.00 | 80 | 1009.3 |
| 20260505191037 | 81 | 167 | 11.3 | 17.4 | 0.00 | 0.00 | 0.00 | 80 | 1009.4 |
| 20260505190537 | 81 | 193 | 13.0 | 17.4 | 0.00 | 0.00 | 0.00 | 80 | 1009.2 |
| 20260505190044 | 81 | 159 | 14.8 | 19.1 | 0.00 | 0.00 | 0.00 | 80 | 1009.4 |
| 20260505185536 | 81 | 165 | 13.9 | 17.4 | 0.00 | 0.00 | 0.00 | 80 | 1009.4 |
| 20260505185035 | 81 | 189 | 9.6 | 17.4 | 0.00 | 0.00 | 0.00 | 83 | 1009.2 |
| 20260505184535 | 80 | 180 | 9.6 | 17.4 | 0.00 | 0.00 | 0.00 | 84 | 1009.2 |
| 20260505184034 | 80 | 167 | 9.6 | 14.8 | 0.00 | 0.00 | 0.00 | 84 | 1009.3 |
| 20260505183537 | 79 | 164 | 8.7 | 14.8 | 0.00 | 0.00 | 0.00 | 84 | 1009.5 |
| 20260505183047 | 79 | 165 | 12.2 | 19.1 | 0.00 | 0.00 | 0.00 | 84 | 1009.4 |
| 20260505182533 | 79 | 167 | 12.2 | 19.1 | 0.00 | 0.00 | 0.00 | 84 | 1009.4 |
| 20260505182034 | 79 | 178 | 11.3 | 18.2 | 0.00 | 0.00 | 0.00 | 84 | 1009.5 |
| 20260505181535 | 79 | 188 | 11.3 | 18.2 | 0.00 | 0.00 | 0.00 | 83 | 1009.4 |
| 20260505181036 | 80 | 174 | 12.2 | 17.4 | 0.00 | 0.00 | 0.00 | 82 | 1009.5 |
| 20260505180535 | 80 | 188 | 9.6 | 18.2 | 0.00 | 0.00 | 0.00 | 83 | 1009.6 |
| 20260505180039 | 80 | 176 | 11.3 | 18.2 | 0.00 | 0.00 | 0.00 | 82 | 1009.6 |
| 20260505175534 | 80 | 171 | 13.0 | 18.2 | 0.00 | 0.00 | 0.00 | 82 | 1009.7 |
| 20260505175034 | 80 | 169 | 10.4 | 16.5 | 0.00 | 0.00 | 0.00 | 82 | 1009.7 |
| 20260505174538 | 80 | 178 | 12.2 | 18.2 | 0.00 | 0.00 | 0.00 | 82 | 1009.7 |
| 20260505174032 | 80 | 172 | 13.0 | 20.0 | 0.00 | 0.00 | 0.00 | 82 | 1009.7 |
| 20260505173531 | 80 | 166 | 13.0 | 20.0 | 0.00 | 0.00 | 0.00 | 82 | 1009.8 |
| 20260505173038 | 80 | 161 | 11.3 | 19.1 | 0.00 | 0.00 | 0.00 | 82 | 1009.8 |
| 20260505172533 | 80 | 196 | 13.9 | 19.1 | 0.00 | 0.00 | 0.00 | 82 | 1010.0 |
| 20260505172031 | 80 | 185 | 14.8 | 18.2 | 0.00 | 0.00 | 0.00 | 82 | 1009.8 |
| 20260505171538 | 80 | 182 | 11.3 | 18.2 | 0.00 | 0.00 | 0.00 | 82 | 1009.9 |
| 20260505171030 | 81 | 182 | 12.2 | 20.9 | 0.00 | 0.00 | 0.00 | 82 | 1010.0 |
| 20260505170528 | 80 | 195 | 11.3 | 20.9 | 0.00 | 0.00 | 0.00 | 83 | 1009.9 |
| 20260505170030 | 80 | 184 | 11.3 | 19.1 | 0.00 | 0.00 | 0.00 | 83 | 1010.0 |
| 20260505165527 | 80 | 162 | 11.3 | 18.2 | 0.00 | 0.00 | 0.00 | 83 | 1010.1 |
| 20260505165027 | 80 | 163 | 13.9 | 18.2 | 0.00 | 0.00 | 0.00 | 83 | 1010.2 |
| 20260505164534 | 80 | 162 | 9.6 | 14.8 | 0.00 | 0.00 | 0.00 | 84 | 1010.2 |
| 20260505164028 | 79 | 191 | 9.6 | 17.4 | 0.00 | 0.00 | 0.00 | 83 | 1010.1 |
| 20260505163527 | 80 | 161 | 11.3 | 17.4 | 0.00 | 0.00 | 0.00 | 83 | 1010.1 |
| 20260505163030 | 80 | 168 | 10.4 | 16.5 | 0.00 | 0.00 | 0.00 | 83 | 1010.1 |
| 20260505162526 | 80 | 163 | 11.3 | 16.5 | 0.00 | 0.00 | 0.00 | 83 | 1010.2 |
| 20260505162025 | 79 | 174 | 11.3 | 21.7 | 0.00 | 0.00 | 0.00 | 83 | 1010.0 |
| 20260505161525 | 79 | 190 | 13.0 | 18.2 | 0.00 | 0.00 | 0.00 | 82 | 1010.0 |
| 20260505161024 | 79 | 164 | 12.2 | 20.0 | 0.00 | 0.00 | 0.00 | 82 | 1010.2 |
| 20260505160524 | 79 | 192 | 13.9 | 19.1 | 0.00 | 0.00 | 0.00 | 83 | 1010.0 |
| 20260505153026 | 77 | 175 | 9.6 | 13.0 | 0.00 | 0.00 | 0.00 | 88 | 1009.8 |
| 20260505152516 | 77 | 180 | 7.8 | 15.6 | 0.00 | 0.00 | 0.00 | 88 | 1009.7 |
| 20260505152024 | 77 | 178 | 7.8 | 12.2 | 0.00 | 0.00 | 0.00 | 88 | 1009.7 |
| 20260505151518 | 77 | 176 | 9.6 | 14.8 | 0.00 | 0.00 | 0.00 | 88 | 1009.7 |
| 20260505151015 | 77 | 165 | 8.7 | 14.8 | 0.00 | 0.00 | 0.00 | 88 | 1009.8 |
| 20260505150522 | 77 | 187 | 8.7 | 13.0 | 0.00 | 0.00 | 0.00 | 89 | 1009.8 |
| 20260505140517 | 76 | 172 | 8.7 | 13.9 | 0.00 | 0.00 | 0.00 | 90 | 1009.8 |